Weather History for Port Isabel, TX

Change the Weather History Date:

Wednesday, April 10, 2013

  Actual Average Record
Temperature  
Mean Temperature 81 °F -  
Max Temperature 96 °F - - ()
Min Temperature 64 °F - - ()
Cooling Degree Days 16    
Growing Degree Days 31 (Base 50)    
Moisture  
Dew Point 69 °F    
Average Humidity 76    
Maximum Humidity 93    
Minimum Humidity 41    
Precipitation  
Precipitation 0.03 in - - ()
Sea Level Pressure  
Sea Level Pressure 29.65 in    
Wind  
Wind Speed 20 mph (SE)    
Max Wind Speed 28 mph    
Max Gust Speed 37 mph    
Visibility 6 miles    
Events Rain    
T = Trace of Precipitation, MM = Missing Value Source: NWS Daily Summary

Daily Weather History Graph

Daily Weather History Graph

Search for Another Location

Airport:

Trip Planner

Search our weather history database for the weather conditions in past years. The results will help you decide how hot, cold, wet, or windy it might be!

Date:

Astronomy

Apr. 10, 2013 Rise Set
Actual Time 7:10 AM CDT 7:50 PM CDT
Civil Twilight 6:47 AM CDT 8:14 PM CDT
Nautical Twilight 6:19 AM CDT 8:41 PM CDT
Astronomical Twilight 5:51 AM CDT 9:09 PM CDT
Moon 7:10 AM CDT (4/10) 8:21 PM CDT (4/10)
Length of Visible Light 13h 26m
Length of Day
12h 39m
New Moon, 0% of the Moon is Illuminated
Apr 10
New Moon
Apr 18
First Quarter
Apr 25
Full
May 2
Last Quarter
May 9
New

Hourly Weather History & Observations

Time (CDT) Temp. Heat Index Dew Point Humidity Pressure Visibility Wind Dir Wind Speed Gust Speed Precip Events Conditions
12:35 AM 78.8 °F - 71.6 °F 78% 29.68 in 6.0 mi SSE 20.7 mph 29.9 mph N/A   Haze
12:53 AM 78.1 °F - 71.1 °F 79% 29.67 in 6.0 mi SSE 24.2 mph 33.4 mph N/A   Haze
1:12 AM 78.8 °F - 71.6 °F 78% 29.67 in 6.0 mi SSE 20.7 mph 26.5 mph N/A   Haze
1:53 AM 77.0 °F - 71.1 °F 82% 29.66 in 6.0 mi SSE 17.3 mph 27.6 mph N/A   Haze
2:38 AM 75.2 °F - 71.6 °F 89% 29.65 in 6.0 mi SSE 19.6 mph 27.6 mph N/A   Haze
2:53 AM 75.9 °F - 71.1 °F 85% 29.64 in 6.0 mi SSE 21.9 mph 27.6 mph N/A   Haze
3:35 AM 75.2 °F - 71.6 °F 89% 29.61 in 6.0 mi SE 20.7 mph 29.9 mph N/A   Haze
3:53 AM 75.9 °F - 71.1 °F 85% 29.60 in 6.0 mi SSE 25.3 mph 36.8 mph N/A   Haze
4:17 AM 75.2 °F - 71.6 °F 89% 29.59 in 6.0 mi SSE 20.7 mph 33.4 mph N/A   Haze
4:53 AM 75.9 °F - 71.1 °F 85% 29.59 in 6.0 mi SSE 21.9 mph 31.1 mph N/A   Haze
5:09 AM 75.2 °F - 71.6 °F 89% 29.60 in 6.0 mi SSE 20.7 mph 29.9 mph N/A   Haze
5:44 AM 75.2 °F - 71.6 °F 89% 29.61 in 7.0 mi SSE 20.7 mph 29.9 mph N/A   Scattered Clouds
5:53 AM 75.9 °F - 71.1 °F 85% 29.61 in 7.0 mi SSE 20.7 mph 28.8 mph N/A   Scattered Clouds
6:06 AM 75.2 °F - 71.6 °F 89% 29.61 in 7.0 mi SSE 20.7 mph 26.5 mph N/A   Mostly Cloudy
6:53 AM 75.9 °F - 71.1 °F 85% 29.61 in 6.0 mi SSE 17.3 mph 28.8 mph N/A   Haze
7:37 AM 75.2 °F - 71.6 °F 89% 29.61 in 5.0 mi South 20.7 mph - N/A   Haze
7:53 AM 75.9 °F - 71.1 °F 85% 29.62 in 5.0 mi SSE 19.6 mph - N/A   Haze
8:53 AM 79.0 °F - 71.1 °F 77% 29.64 in 6.0 mi SSE 20.7 mph 29.9 mph N/A   Haze
9:53 AM 82.0 °F 85.9 °F 70.0 °F 67% 29.66 in 6.0 mi South 24.2 mph 32.2 mph N/A   Haze
10:53 AM 86.0 °F 90.7 °F 70.0 °F 59% 29.66 in 6.0 mi South 27.6 mph 34.5 mph N/A   Haze
11:23 AM 87.8 °F 92.6 °F 69.8 °F 55% 29.66 in 6.0 mi South 19.6 mph 36.8 mph N/A   Haze
11:53 AM 88.0 °F 92.9 °F 70.0 °F 55% 29.65 in 6.0 mi South 27.6 mph 36.8 mph N/A   Haze
12:53 PM 89.1 °F 94.1 °F 70.0 °F 53% 29.68 in 7.0 mi South 18.4 mph 25.3 mph N/A   Overcast
1:53 PM 90.0 °F 95.4 °F 70.0 °F 52% 29.66 in 7.0 mi SSW 15.0 mph 19.6 mph N/A   Overcast
2:53 PM 91.9 °F 96.9 °F 69.1 °F 47% 29.63 in 7.0 mi Variable 5.8 mph - N/A   Scattered Clouds
3:53 PM 96.1 °F 101.6 °F 69.1 °F 41% 29.61 in 7.0 mi Variable 5.8 mph - N/A   Partly Cloudy
4:11 PM 87.8 °F 93.8 °F 71.6 °F 58% 29.60 in 6.0 mi SE 24.2 mph 32.2 mph N/A   Haze
4:53 PM 87.1 °F 93.6 °F 72.0 °F 61% 29.60 in 6.0 mi SE 20.7 mph 26.5 mph N/A   Haze
5:53 PM 84.9 °F 90.7 °F 72.0 °F 65% 29.60 in 6.0 mi SE 18.4 mph - N/A   Haze
6:26 PM 82.4 °F 87.2 °F 71.6 °F 70% 29.62 in 6.0 mi SE 13.8 mph - N/A   Haze
6:53 PM 82.0 °F 86.7 °F 72.0 °F 71% 29.63 in 6.0 mi ESE 10.4 mph - N/A   Haze
7:03 PM 75.2 °F - 66.2 °F 73% 29.65 in 6.0 mi NNE 16.1 mph 29.9 mph N/A   Haze
7:08 PM 73.4 °F - 66.2 °F 78% 29.65 in 6.0 mi NNE 19.6 mph 25.3 mph N/A   Haze
7:53 PM 69.1 °F - 64.0 °F 84% 29.66 in 7.0 mi North 21.9 mph 26.5 mph N/A   Overcast
8:53 PM 66.9 °F - 63.0 °F 87% 29.70 in 4.0 mi North 19.6 mph 28.8 mph 0.00 in Rain Light Rain
9:17 PM 66.2 °F - 62.6 °F 88% 29.71 in 2.5 mi North 17.3 mph 27.6 mph 0.00 in   Overcast
9:32 PM 66.2 °F - 62.6 °F 88% 29.72 in 3.0 mi North 20.7 mph 26.5 mph 0.01 in   Overcast
9:53 PM 66.0 °F - 64.0 °F 93% 29.73 in 4.0 mi North 19.6 mph 28.8 mph 0.02 in   Overcast
10:53 PM 66.0 °F - 63.0 °F 90% 29.75 in 7.0 mi North 18.4 mph 25.3 mph 0.01 in Rain Light Rain
11:53 PM 64.9 °F - 62.1 °F 90% 29.76 in 6.0 mi North 18.4 mph 26.5 mph 0.00 in Rain Light Rain